Weather History for Crestview, FL

Change the Weather History Date:

Tuesday, November 8, 2011

  Actual Average Record
Temperature  
Mean Temperature 68 °F -  
Max Temperature 80 °F - - ()
Min Temperature 55 °F - - ()
Cooling Degree Days 2    
Growing Degree Days 18 (Base 50)    
Moisture  
Dew Point 55 °F    
Average Humidity 73    
Maximum Humidity 95    
Minimum Humidity 39    
Precipitation  
Precipitation 0.00 in - - ()
Sea Level Pressure  
Sea Level Pressure 30.12 in    
Wind  
Wind Speed 3 mph (SE)    
Max Wind Speed 12 mph    
Max Gust Speed 20 mph    
Visibility 9 miles    
Events      
T = Trace of Precipitation, MM = Missing Value Source: NWS Daily Summary

Daily Weather History Graph

Daily Weather History Graph

Search for Another Location

Airport:

Trip Planner

Search our weather history database for the weather conditions in past years. The results will help you decide how hot, cold, wet, or windy it might be!

Date:

Astronomy

Nov. 08, 2011 Rise Set
Actual Time 6:06 AM CST 4:53 PM CST
Civil Twilight 5:41 AM CST 5:18 PM CST
Nautical Twilight 5:12 AM CST 5:46 PM CST
Astronomical Twilight 4:43 AM CST 6:15 PM CST
Moon 3:29 PM CST (11/8) 4:09 AM CST (11/8)
Length of Visible Light 11h 37m
Length of Day
10h 46m
Waxing Gibbous, 96% of the Moon is Illuminated
Nov 8
Waxing Gibbous
Nov 10
Full
Nov 18
Last Quarter
Nov 25
New
Dec 2
First Quarter

Hourly Weather History & Observations

Time (CST) Temp. Heat Index Dew Point Humidity Pressure Visibility Wind Dir Wind Speed Gust Speed Precip Events Conditions
12:55 AM 61.3 °F - 55.9 °F 82% 30.14 in 10.0 mi Calm Calm - N/A   Scattered Clouds
1:55 AM 61.5 °F - 56.1 °F 82% 30.12 in 10.0 mi Calm Calm - N/A   Partly Cloudy
2:55 AM 60.4 °F - 55.6 °F 84% 30.12 in 10.0 mi Calm Calm - N/A   Partly Cloudy
3:55 AM 56.3 °F - 53.1 °F 89% 30.14 in 10.0 mi Calm Calm - N/A   Overcast
4:55 AM 55.2 °F - 52.7 °F 91% 30.15 in 10.0 mi Calm Calm - N/A   Mostly Cloudy
5:55 AM 60.1 °F - 55.4 °F 85% 30.16 in 10.0 mi Calm Calm - N/A   Overcast
6:55 AM 57.7 °F - 55.0 °F 91% 30.18 in 10.0 mi NNW 3.5 mph - N/A   Overcast
8:55 AM 72.5 °F - 53.2 °F 51% 30.19 in 10.0 mi East 10.4 mph 17.3 mph N/A   Partly Cloudy
9:55 AM 75.4 °F - 54.7 °F 48% 30.18 in 10.0 mi ESE 11.5 mph - N/A   Partly Cloudy
10:55 AM 77.9 °F - 55.2 °F 45% 30.17 in 10.0 mi East 9.2 mph - N/A   Scattered Clouds
11:55 AM 79.0 °F - 53.8 °F 42% 30.14 in 10.0 mi SE 10.4 mph 19.6 mph N/A   Scattered Clouds
12:55 PM 79.2 °F - 54.1 °F 42% 30.11 in 10.0 mi SSE 10.4 mph - N/A   Scattered Clouds
1:55 PM 80.1 °F 79.9 °F 53.2 °F 39% 30.09 in 10.0 mi SSE 8.1 mph - N/A   Scattered Clouds
2:55 PM 78.4 °F - 56.5 °F 47% 30.08 in 10.0 mi South 11.5 mph - N/A   Scattered Clouds
3:55 PM 76.5 °F - 56.3 °F 50% 30.07 in 10.0 mi SSE 10.4 mph - N/A   Scattered Clouds
4:55 PM 71.8 °F - 57.0 °F 60% 30.07 in 10.0 mi SSE 6.9 mph - N/A   Scattered Clouds
5:55 PM 66.7 °F - 57.6 °F 72% 30.09 in 10.0 mi South 3.5 mph - N/A   Scattered Clouds
6:55 PM 63.5 °F - 57.7 °F 81% 30.09 in 10.0 mi SSE 3.5 mph - N/A   Scattered Clouds
7:55 PM 60.1 °F - 56.1 °F 87% 30.10 in 10.0 mi Calm Calm - N/A   Mostly Cloudy
8:55 PM 58.8 °F - 55.2 °F 88% 30.09 in 10.0 mi Calm Calm - N/A   Mostly Cloudy
9:55 PM 58.1 °F - 55.8 °F 92% 30.09 in 10.0 mi Calm Calm - N/A   Scattered Clouds
10:55 PM 58.8 °F - 57.4 °F 95% 30.09 in 10.0 mi Calm Calm - N/A   Scattered Clouds
11:55 PM 56.7 °F - 55.0 °F 94% 30.10 in 10.0 mi North 2.3 mph - N/A   Mostly Cloudy
11:57 PM 57.2 °F - 55.4 °F 94% 30.09 in 2.0 mi Calm Calm - N/A   Clear
11:58 PM 57.2 °F - 55.4 °F 94% 30.09 in 1.8 mi Calm Calm - N/A   Clear